BEIDOU-3S M1S (C57)

Last updated on Fri Jun 19 2026 17:10:00 GMT+0000 (Coordinated Universal Time)

1 40749U 15037B 26167.45695291 -.00000070 00000+0 00000+0 0 9999 2 40749 54.8681 302.0590 0003448 61.6955 298.3263 1.86254753 74115
UTC large
Height (km)
Speed (km/s)
/
Latitude / Longitude
Inclination (degrees)
Orbital Period (minutes)
Azimuth
Elevation
Range (km)
Doppler Factor

Next 0 passes for location: London (51.5072 / 0.1276)

No passes found over London.
BEIDOU-3S M1S (C57)